Change the Weather History Date:

Thursday, August 22, 2013

  Actual Average Record
Temperature  
Mean Temperature 79 °F -  
Max Temperature 91 °F 93 °F 103 °F (1963)
Min Temperature 67 °F 69 °F 60 °F (1979)
Cooling Degree Days 14    
Growing Degree Days 29 (Base 50)    
Moisture  
Dew Point 68 °F    
Average Humidity 67    
Maximum Humidity 88    
Minimum Humidity 48    
Precipitation  
Precipitation 0.00 in - - ()
Sea Level Pressure  
Sea Level Pressure 30.06 in    
Wind  
Wind Speed 0 mph (North)    
Max Wind Speed 0 mph    
Max Gust Speed -    
Averages and records for this station are not official NWS values.
T = Trace of Precipitation, MM = Missing Value Source: NWS Daily Summary

Daily Weather History Graph

Daily Weather History Graph

Search for Another Location

Airport or City:

Trip Planner

Search our weather history database for the weather conditions in past years. The results will help you decide how hot, cold, wet, or windy it might be!

Date:

Astronomy

Aug. 22, 2013 Rise Set
Actual Time 6:58 AM CDT 8:14 PM CDT
Civil Twilight 6:31 AM CDT 8:40 PM CDT
Nautical Twilight 5:59 AM CDT 9:12 PM CDT
Astronomical Twilight 5:26 AM CDT 9:45 PM CDT
Moon 9:05 PM CDT (8/22) 8:42 AM CDT (8/22)
Length of Visible Light 14h 09m
Length of Day
13h 16m
Waning Gibbous, 96% of the Moon is Illuminated
Aug 22
Waning Gibbous
Aug 28
Last Quarter
Sep 5
New
Sep 12
First Quarter
Sep 19
Full

Hourly Weather History & Observations

Time (CDT) Temp. Heat Index Dew Point Humidity Pressure Visibility Wind Dir Wind Speed Gust Speed Precip Events Conditions
12:15 AM 73.8 °F - 65.3 °F 75% 30.08 in - Calm Calm - N/A   Clear
12:35 AM 72.3 °F - 65.7 °F 79% 30.08 in - Calm Calm - N/A   Clear
12:55 AM 72.5 °F - 65.7 °F 79% 30.08 in - Calm Calm - N/A   Clear
1:15 AM 72.1 °F - 65.5 °F 79% 30.08 in - Calm Calm - N/A   Clear
1:35 AM 72.0 °F - 65.3 °F 79% 30.08 in - Calm Calm - N/A   Clear
1:55 AM 72.0 °F - 64.8 °F 78% 30.08 in - Calm Calm - N/A   Clear
2:15 AM 72.1 °F - 64.4 °F 77% 30.08 in - Calm Calm - N/A   Clear
2:35 AM 72.0 °F - 64.4 °F 77% 30.08 in - Calm Calm - N/A   Clear
2:55 AM 70.3 °F - 64.4 °F 81% 30.08 in - Calm Calm - N/A   Clear
3:15 AM 71.4 °F - 64.0 °F 77% 30.08 in - Calm Calm - N/A   Clear
3:35 AM 70.3 °F - 63.9 °F 80% 30.07 in - Calm Calm - N/A   Clear
3:55 AM 70.0 °F - 63.9 °F 81% 30.07 in - Calm Calm - N/A   Clear
4:15 AM 70.0 °F - 63.9 °F 81% 30.06 in - Calm Calm - N/A   Clear
4:35 AM 69.8 °F - 63.9 °F 81% 30.06 in - Calm Calm - N/A   Clear
4:55 AM 69.3 °F - 63.7 °F 82% 30.06 in - Calm Calm - N/A   Clear
5:15 AM 68.9 °F - 63.7 °F 83% 30.07 in - Calm Calm - N/A   Clear
5:35 AM 68.5 °F - 63.7 °F 84% 30.07 in - Calm Calm - N/A   Clear
5:55 AM 68.4 °F - 63.7 °F 85% 30.07 in - Calm Calm - N/A   Unknown
6:15 AM 68.9 °F - 63.9 °F 84% 30.07 in - Calm Calm - N/A   Clear
6:35 AM 68.0 °F - 63.7 °F 86% 30.07 in - Calm Calm - N/A   Unknown
6:55 AM 68.4 °F - 63.7 °F 85% 30.08 in - Calm Calm - N/A   Unknown
7:15 AM 68.2 °F - 63.9 °F 86% 30.09 in - Calm Calm - N/A   Unknown
7:35 AM 67.6 °F - 63.9 °F 88% 30.10 in - Calm Calm - N/A   Unknown
7:55 AM 68.9 °F - 64.8 °F 87% 30.10 in - Calm Calm - N/A   Unknown
8:15 AM 70.7 °F - 65.5 °F 83% 30.11 in - Calm Calm - N/A   Clear
8:35 AM 72.7 °F - 66.7 °F 82% 30.11 in - Calm Calm - N/A   Clear
8:55 AM 74.7 °F - 67.5 °F 78% 30.12 in - Calm Calm - N/A   Clear
9:15 AM 75.7 °F - 67.6 °F 76% 30.12 in - Calm Calm - N/A   Clear
9:35 AM 77.7 °F - 69.4 °F 76% 30.11 in - Calm Calm - N/A   Clear
9:55 AM 80.4 °F 83.9 °F 70.7 °F 72% 30.11 in - Calm Calm - N/A   Clear
10:15 AM 82.4 °F 86.3 °F 70.0 °F 66% 30.11 in - Calm Calm - N/A   Clear
10:35 AM 83.3 °F 87.6 °F 70.5 °F 65% 30.11 in - Calm Calm - N/A   Clear
10:55 AM 84.9 °F 90.1 °F 71.1 °F 63% 30.11 in - Calm Calm - N/A   Clear
11:15 AM 85.3 °F 90.8 °F 71.2 °F 63% 30.10 in - Calm Calm - N/A   Clear
11:35 AM 86.2 °F 90.7 °F 70.0 °F 58% 30.10 in - Calm Calm - N/A   Clear
11:55 AM 87.1 °F 91.6 °F 69.6 °F 56% 30.10 in - Calm Calm - N/A   Clear
12:15 PM 87.8 °F 91.4 °F 68.0 °F 52% 30.09 in - Calm Calm - N/A   Clear
12:35 PM 88.0 °F 91.0 °F 67.3 °F 50% 30.09 in - Calm Calm - N/A   Clear
12:55 PM 88.5 °F 92.3 °F 68.2 °F 51% 30.08 in - Calm Calm - N/A   Scattered Clouds
1:15 PM 87.4 °F 90.8 °F 68.0 °F 52% 30.08 in - Calm Calm - N/A   Scattered Clouds
1:35 PM 87.6 °F 90.4 °F 66.7 °F 50% 30.07 in - Calm Calm - N/A   Scattered Clouds
1:55 PM 89.2 °F 93.6 °F 68.7 °F 51% 30.06 in - Calm Calm - N/A   Scattered Clouds
2:15 PM 89.4 °F 92.7 °F 67.5 °F 48% 30.05 in - Calm Calm - N/A   Scattered Clouds
2:35 PM 90.3 °F 94.3 °F 68.0 °F 48% 30.04 in - Calm Calm - N/A   Scattered Clouds
2:55 PM 89.8 °F 93.8 °F 68.2 °F 49% 30.04 in - Calm Calm - N/A   Clear
3:15 PM 89.4 °F 94.0 °F 68.9 °F 51% 30.03 in - Calm Calm - N/A   Clear
3:35 PM 89.8 °F 94.6 °F 69.4 °F 51% 30.03 in - Calm Calm - N/A   Scattered Clouds
3:55 PM 89.4 °F 93.5 °F 68.7 °F 50% 30.02 in - Calm Calm - N/A   Scattered Clouds
4:15 PM 90.7 °F 95.9 °F 69.8 °F 50% 30.02 in - Calm Calm - N/A   Scattered Clouds
4:35 PM 91.0 °F 97.1 °F 70.5 °F 51% 30.01 in - Calm Calm - N/A   Scattered Clouds
4:55 PM 91.2 °F 97.0 °F 70.2 °F 50% 30.01 in - Calm Calm - N/A   Scattered Clouds
5:15 PM 91.0 °F 96.1 °F 69.4 °F 49% 30.01 in - Calm Calm - N/A   Scattered Clouds
5:35 PM 90.9 °F 95.3 °F 68.9 °F 48% 30.00 in - Calm Calm - N/A   Scattered Clouds
5:55 PM 90.9 °F 95.3 °F 68.5 °F 48% 30.00 in - Calm Calm - N/A   Clear
6:15 PM 89.4 °F 93.1 °F 68.2 °F 49% 30.00 in - Calm Calm - N/A   Clear
6:35 PM 89.6 °F 93.9 °F 68.5 °F 50% 30.00 in - Calm Calm - N/A   Clear
6:55 PM 88.9 °F 93.0 °F 68.7 °F 51% 29.99 in - Calm Calm - N/A   Clear
7:15 PM 88.3 °F 92.8 °F 69.3 °F 53% 29.99 in - Calm Calm - N/A   Clear
7:35 PM 87.6 °F 92.7 °F 70.3 °F 56% 29.99 in - Calm Calm - N/A   Clear
7:55 PM 86.2 °F 90.7 °F 70.0 °F 58% 30.00 in - Calm Calm - N/A   Clear
8:15 PM 85.6 °F 90.1 °F 69.6 °F 59% 30.00 in - Calm Calm - N/A   Clear
8:35 PM 84.0 °F 88.4 °F 70.0 °F 63% 30.01 in - Calm Calm - N/A   Clear
8:55 PM 83.5 °F 87.4 °F 69.8 °F 63% 30.01 in - Calm Calm - N/A   Clear
9:15 PM 82.9 °F 86.5 °F 69.3 °F 63% 30.02 in - Calm Calm - N/A   Clear
9:35 PM 81.5 °F 85.1 °F 70.2 °F 68% 30.02 in - Calm Calm - N/A   Clear
9:55 PM 81.7 °F 85.8 °F 70.9 °F 70% 30.03 in - Calm Calm - N/A   Clear
10:15 PM 80.4 °F 84.1 °F 70.9 °F 73% 30.04 in - Calm Calm - N/A   Clear
10:35 PM 79.5 °F - 70.9 °F 75% 30.04 in - Calm Calm - N/A   Clear
10:55 PM 78.8 °F - 71.1 °F 77% 30.04 in - Calm Calm - N/A   Clear
11:15 PM 78.1 °F - 70.9 °F 78% 30.04 in - Calm Calm - N/A   Clear
11:35 PM 77.5 °F - 70.9 °F 80% 30.05 in - Calm Calm - N/A   Clear
11:55 PM 78.3 °F - 70.9 °F 78% 30.05 in - Calm Calm - N/A   Clear